Location: *
(51.0333°S, 178.4667°E)
Time: 21:41:23
(UTC+00:00)

CZ-4 R/B - Pass Details

Date: 21 February 2020
Orbit: 531 x 599 km, 97.8° (Epoch: 06 April)

Event Time Altitude Azimuth Distance (km) Brightness Sun altitude
Rises 09:09:54 0° 182° (S) 2,806 5.6 -15.9°
Reaches altitude 10° 09:13:03 10° 208° (SSW) 1,915 5.2 -16.2°
Maximum altitude 09:15:01 13° 237° (WSW) 1,715 5.0 -16.5°
Drops below altitude 10° 09:16:59 10° 265° (W) 1,924 4.9 -16.7°
Sets 09:20:10 0° 292° (WNW) 2,830 5.3 -17.1°
